Weather Roundup
Issued by NWS Chicago, IL

Home | Current Version | Previous Version | Graphics & Text | Print | Product List | Glossary On
Versions: 1 2 3 4 5 6 7 8 9 10 11 12 13 14 15 16 17 18 19 20 21 22 23 24 25 26 27 28 29 30 31 32 33 34 35 36 37 38 39 40 41 42 43 44 45 46 47 48 49 50
000
NZUS59 KLOT 250100
HRRLOT

CHICAGO AREA WEATHER ROUNDUP
NATIONAL WEATHER SERVICE CHICAGO/ROMEOVILLE IL
800 PM CDT FRI OCT 24 2014

NOTE: "FAIR" INDICATES FEW OR NO CLOUDS BELOW 12,000 FEET WITH NO
SIGNIFICANT WEATHER AND/OR OBSTRUCTIONS TO VISIBILITY.

* THESE STATIONS ARE NOT UNDER NWS QUALITY CONTROL. THEY ALSO MAY NOT
  REPORT WEATHER SUCH AS PRECIPITATION OR FOG.

ILZ005-006-012>014-019>023-250200-
NORTHEAST ILLINOIS

CITY           SKY/WX    TMP DP  RH WIND       PRES   REMARKS
OHARE          MOCLDY    61  45  55 S7        29.95R
MIDWAY         CLOUDY    63  48  58 S6        29.95S
AURORA         MOCLDY    55  44  66 S5        29.96R
WAUKEGAN       MOCLDY    49  48  97 CALM      29.93F FOG
DUPAGE AIRPORT MOCLDY    54  47  77 CALM      29.95R
WHEELING       CLOUDY    59  46  62 S3        29.96S
NORTHERLY IS     N/A     63  46  54 S2          N/A
$$

WIZ051-052-058>065-066-070>072-250200-
SOUTHEAST WISCONSIN

CITY           SKY/WX    TMP DP  RH WIND       PRES   REMARKS
MILWAUKEE      CLOUDY    54  49  83 S6        29.94S HAZE
KENOSHA*       CLOUDY    53  50  89 S3        29.94F FOG
RACINE*        CLOUDY    53  50  89 S5        29.95F FOG
WAUKESHA       CLOUDY    55  48  76 CALM      29.95S
$$

INZ001>003-010>013-019-020-250200-
NORTHWEST INDIANA

CITY           SKY/WX    TMP DP  RH WIND       PRES   REMARKS
GARY*          MOCLDY    57  50  77 CALM      29.97S
MICHIGAN CITY* NOT AVBL
RENSSELAER*    NOT AVBL
$$

LMZ740>746-250200-
SOUTHERN LAKE MICHIGAN

STATION/POSITION TIME  SKY/WX   TEMP WIND        PRES    VSBY
                                AIR  DIR/SP/G
                 (UTC)          (F)  (DEG/KT/KT) (MB)    (MI)
HARRISON CRIB    0000            60  170/ 11/ 12   N/A
BURNHAM HARBOR   0100            63  180/  3/  7   N/A
CALUMET HARBOR   0000            61  160/  2/  2 1013.4R
BURNS HARBOR     NOT AVBL
MICHIGAN CITY    0000            58  110/  6/  7   N/A
$$

ABBREVIATIONS USED IN REMARKS
   TC - TEMPERATURE IN CELSIUS
  WCI - WIND CHILL INDEX
   HX - HEAT INDEX
  VSB - VISIBILITY
$$



USA.gov is the U.S. government's official web portal to all federal, state and local government web resources and services.